Santa Fe, NM

5:04 PM MST on January 19, 2018 (GMT -0700)
Santa Fe Municipal

Weather History for KSAF - May, 2013

Change the Weather History Date:

Sunday, May 12, 2013

  Actual Average Record
Temperature  
Mean Temperature 55 °F -  
Max Temperature 75 °F 73 °F 84 °F (2006)
Min Temperature 37 °F 36 °F 32 °F (2005)
Degree Days  
Heating Degree Days 10    
Growing Degree Days 5 (Base 50)    
Moisture  
Dew Point 30 °F    
Average Humidity 40    
Maximum Humidity 79    
Minimum Humidity 12    
Precipitation  
Precipitation 0.00 in - - ()
Sea Level Pressure  
Sea Level Pressure 30.14 in    
Wind  
Wind Speed 6 mph (NE)    
Max Wind Speed 20 mph    
Max Gust Speed 28 mph    
Visibility 10 miles    
Events      
Averages and records for this station are not official NWS values.
T = Trace of Precipitation, MM = Missing Value Source: NWS Daily Summary

Daily Weather History Graph

Daily Weather History Graph

Search for Another Location

Airport or City:

Trip Planner

Search our weather history database for the weather conditions in past years. The results will help you decide how hot, cold, wet, or windy it might be!

Date:

Astronomy

May. 12, 2013 Rise Set
Actual Time 6:01 AM MDT 8:00 PM MDT
Civil Twilight 5:33 AM MDT 8:28 PM MDT
Nautical Twilight 4:59 AM MDT 9:02 PM MDT
Astronomical Twilight 4:22 AM MDT 9:39 PM MDT
Moon 8:00 AM MDT (5/12) 10:28 PM MDT (5/12)
Length of Visible Light 14h 55m
Length of Day
13h 58m
Waxing Crescent, 7% of the Moon is Illuminated
May 12
Waxing Crescent
May 17
First Quarter
May 24
Full
May 31
Last Quarter
Jun 8
New

Hourly Weather History & Observations

Time (MDT) Temp. Windchill Dew Point Humidity Pressure Visibility Wind Dir Wind Speed Gust Speed Precip Events Conditions
12:53 AM 48.0 °F - 34.0 °F 58% 30.22 in 10.0 mi SSE 4.6 mph - N/A   Clear
1:53 AM 46.0 °F 43.9 °F 34.0 °F 63% 30.22 in 10.0 mi East 4.6 mph - N/A   Clear
2:53 AM 39.9 °F 36.7 °F 32.0 °F 73% 30.22 in 10.0 mi NW 4.6 mph - N/A   Clear
3:53 AM 43.0 °F - 33.1 °F 68% 30.23 in 10.0 mi Calm Calm - N/A   Clear
4:53 AM 37.9 °F - 32.0 °F 79% 30.23 in 10.0 mi Calm Calm - N/A   Clear
5:53 AM 37.9 °F 32.7 °F 32.0 °F 79% 30.25 in 10.0 mi NNW 6.9 mph - N/A   Clear
6:53 AM 41.0 °F 39.0 °F 34.0 °F 76% 30.25 in 10.0 mi North 3.5 mph - N/A   Clear
7:53 AM 50.0 °F - 35.1 °F 57% 30.23 in 10.0 mi NW 3.5 mph - N/A   Clear
8:53 AM 57.0 °F - 34.0 °F 42% 30.21 in 10.0 mi ENE 4.6 mph - N/A   Clear
9:53 AM 61.0 °F - 33.1 °F 35% 30.20 in 10.0 mi NNW 8.1 mph - N/A   Clear
10:53 AM 64.0 °F - 30.0 °F 28% 30.17 in 10.0 mi NNW 9.2 mph - N/A   Clear
11:53 AM 69.1 °F - 28.0 °F 22% 30.12 in 10.0 mi NNW 11.5 mph 19.6 mph N/A   Clear
12:53 PM 72.0 °F - 26.1 °F 18% 30.08 in 10.0 mi NNW 13.8 mph 19.6 mph N/A   Clear
1:53 PM 73.9 °F - 17.1 °F 12% 30.06 in 10.0 mi Calm Calm - N/A   Clear
2:53 PM 72.0 °F - 30.0 °F 21% 30.07 in 10.0 mi ESE 19.6 mph 27.6 mph N/A   Partly Cloudy
3:53 PM 73.0 °F - 27.0 °F 18% 30.04 in 10.0 mi ESE 13.8 mph 19.6 mph N/A   Clear
4:21 PM 71.6 °F - 26.6 °F 19% 30.25 in 10.0 mi ESE 15.0 mph 26.5 mph N/A   Partly Cloudy
4:53 PM 72.0 °F - 26.1 °F 18% 30.06 in 10.0 mi Variable 6.9 mph 19.6 mph N/A   Clear
5:53 PM 72.0 °F - 26.1 °F 18% 30.04 in 10.0 mi SSE 6.9 mph - N/A   Scattered Clouds
6:53 PM 71.1 °F - 25.0 °F 18% 30.04 in 10.0 mi Calm Calm - N/A   Mostly Cloudy
7:53 PM 66.0 °F - 30.0 °F 26% 30.03 in 10.0 mi SE 8.1 mph - N/A   Scattered Clouds
8:53 PM 63.0 °F - 30.0 °F 29% 30.04 in 10.0 mi SE 5.8 mph - N/A   Clear
9:53 PM 57.0 °F - 30.0 °F 36% 30.07 in 10.0 mi West 5.8 mph - N/A   Clear
10:53 PM 57.0 °F - 30.0 °F 36% 30.06 in 10.0 mi North 3.5 mph - N/A   Clear
11:53 PM 52.0 °F - 30.9 °F 45% 30.08 in 10.0 mi South 6.9 mph - N/A   Clear